TimeMST,TemperatureF,Dew PointF,Humidity,Sea Level PressureIn,VisibilityMPH,Wind Direction,Wind SpeedMPH,Gust SpeedMPH,PrecipitationIn,Events,Conditions,WindDirDegrees,DateUTC
12:15 AM,37.4,30.2,75,30.14,10.0,East,6.9,-,N/A,,Clear,100,2012-12-29 07:15:00
12:35 AM,39.2,32.0,75,30.13,10.0,ESE,6.9,-,N/A,,Clear,120,2012-12-29 07:35:00
12:55 AM,37.4,32.0,81,30.13,10.0,ESE,5.8,-,N/A,,Clear,120,2012-12-29 07:55:00
1:15 AM,41.0,28.4,61,30.13,10.0,ESE,5.8,-,N/A,,Clear,110,2012-12-29 08:15:00
1:35 AM,37.4,30.2,75,30.13,10.0,ESE,5.8,-,N/A,,Clear,120,2012-12-29 08:35:00
1:55 AM,37.4,32.0,81,30.13,10.0,Calm,Calm,-,N/A,,Clear,0,2012-12-29 08:55:00
2:15 AM,33.8,30.2,87,30.13,10.0,ESE,4.6,-,N/A,,Clear,110,2012-12-29 09:15:00
2:35 AM,33.8,30.2,87,30.13,10.0,Calm,Calm,-,N/A,,Clear,0,2012-12-29 09:35:00
2:55 AM,33.8,30.2,87,30.13,10.0,Calm,Calm,-,N/A,,Clear,0,2012-12-29 09:55:00
3:15 AM,33.8,30.2,87,30.12,10.0,Calm,Calm,-,N/A,,Clear,0,2012-12-29 10:15:00
3:35 AM,32.0,28.4,87,30.11,10.0,Calm,Calm,-,N/A,,Clear,0,2012-12-29 10:35:00
3:55 AM,32.0,28.4,87,30.10,10.0,ESE,3.5,-,N/A,,Clear,110,2012-12-29 10:55:00
4:15 AM,32.0,28.4,87,30.11,10.0,Calm,Calm,-,N/A,,Clear,0,2012-12-29 11:15:00
4:35 AM,32.0,28.4,87,30.10,10.0,SSW,3.5,-,N/A,,Clear,210,2012-12-29 11:35:00
4:55 AM,32.0,26.6,80,30.11,10.0,SSW,4.6,-,N/A,,Clear,200,2012-12-29 11:55:00
5:15 AM,33.8,26.6,75,30.10,10.0,SSW,3.5,-,N/A,,Clear,210,2012-12-29 12:15:00
5:47 AM,33.8,26.6,75,30.11,20.0,SSE,4.6,-,N/A,,Partly Cloudy,150,2012-12-29 12:47:00
6:47 AM,33.8,26.6,75,30.12,20.0,SSE,3.5,-,N/A,,Partly Cloudy,150,2012-12-29 13:47:00
7:47 AM,33.8,26.6,75,30.12,35.0,NE,3.5,-,N/A,,Partly Cloudy,50,2012-12-29 14:47:00
8:47 AM,37.4,28.4,70,30.13,35.0,East,5.8,-,N/A,,Scattered Clouds,90,2012-12-29 15:47:00
9:47 AM,44.6,26.6,49,30.13,35.0,Calm,Calm,-,N/A,,Scattered Clouds,0,2012-12-29 16:47:00
10:48 AM,50.0,26.6,40,30.12,35.0,Calm,Calm,-,N/A,,Scattered Clouds,0,2012-12-29 17:48:00
11:47 AM,57.2,26.6,31,30.08,45.0,Calm,Calm,-,N/A,,Scattered Clouds,0,2012-12-29 18:47:00
12:47 PM,60.8,19.4,20,30.03,45.0,SE,17.3,-,N/A,,Scattered Clouds,130,2012-12-29 19:47:00
1:47 PM,62.6,19.4,19,30.00,35.0,SSE,11.5,-,N/A,,Scattered Clouds,150,2012-12-29 20:47:00
2:47 PM,62.6,19.4,19,29.98,35.0,SE,9.2,-,N/A,,Mostly Cloudy,140,2012-12-29 21:47:00
3:47 PM,62.6,24.8,24,29.98,35.0,SSE,8.1,-,N/A,,Mostly Cloudy,150,2012-12-29 22:47:00
4:47 PM,60.8,24.8,25,29.97,35.0,SE,3.5,-,N/A,,Mostly Cloudy,130,2012-12-29 23:47:00
5:47 PM,57.2,26.6,31,29.97,20.0,SE,3.5,-,N/A,,Mostly Cloudy,130,2012-12-30 00:47:00
6:47 PM,55.4,28.4,36,29.97,20.0,Variable,3.5,-,N/A,,Mostly Cloudy,0,2012-12-30 01:47:00
7:47 PM,53.6,28.4,38,29.96,20.0,Calm,Calm,-,N/A,,Mostly Cloudy,0,2012-12-30 02:47:00
7:55 PM,51.8,30.2,44,29.96,10.0,Calm,Calm,-,N/A,,Clear,0,2012-12-30 02:55:00
8:15 PM,50.0,32.0,50,29.95,10.0,Calm,Calm,-,N/A,,Clear,0,2012-12-30 03:15:00
8:35 PM,50.0,30.2,47,29.95,10.0,Calm,Calm,-,N/A,,Clear,0,2012-12-30 03:35:00
8:47 PM,51.8,28.4,41,29.95,20.0,Calm,Calm,-,N/A,,Mostly Cloudy,0,2012-12-30 03:47:00
8:55 PM,46.4,32.0,57,29.96,10.0,Calm,Calm,-,N/A,,Clear,0,2012-12-30 03:55:00
9:15 PM,48.2,32.0,54,29.96,10.0,Calm,Calm,-,N/A,,Clear,0,2012-12-30 04:15:00
9:35 PM,50.0,32.0,50,29.96,10.0,Calm,Calm,-,N/A,,Clear,0,2012-12-30 04:35:00
9:55 PM,46.4,30.2,53,29.97,7.0,Calm,Calm,-,N/A,,Clear,0,2012-12-30 04:55:00
10:15 PM,46.4,32.0,57,29.97,10.0,Calm,Calm,-,N/A,,Clear,0,2012-12-30 05:15:00
10:35 PM,46.4,30.2,53,29.97,10.0,Calm,Calm,-,N/A,,Clear,0,2012-12-30 05:35:00
10:55 PM,44.6,32.0,61,29.97,10.0,Calm,Calm,-,N/A,,Clear,0,2012-12-30 05:55:00
11:15 PM,44.6,32.0,61,29.97,10.0,Calm,Calm,-,N/A,,Clear,0,2012-12-30 06:15:00
11:35 PM,44.6,32.0,61,29.97,10.0,Calm,Calm,-,N/A,,Clear,0,2012-12-30 06:35:00
11:55 PM,46.4,32.0,57,29.97,10.0,Calm,Calm,-,N/A,,Clear,0,2012-12-30 06:55:00